Location: Newark
(52.4787°S, 179.0532°W)
Time: 02:46:57
(UTC+00:00)

Vanguard 1 - Pass Details

Date: 18 November 2019
Orbit: 652 x 3832 km, 34.3° (Epoch: 09 December)

Event Time Altitude Azimuth Distance (km) Brightness Sun altitude
Rises 10:36:22 0° 317° (NW) 5,532 13.6 -16.9°
Reaches altitude 10° 10:39:52 10° 325° (NW) 4,921 13.3 -17.1°
Maximum altitude 10:53:15 37° 25° (NNE) 4,299 12.8 -17.6°
Drops below altitude 10° 11:12:14 10° 81° (E) 6,928 14.2 -18.0°
Sets 11:18:24 0° 87° (E) 7,973 14.6 -18.1°
